Location: Laterina
(43.5167°N, 11.7167°E)
Time: 16:11:57
(UTC+00:00)

Cosmos 1833 Rocket - Pass Details

Date: 24 September 2020
Orbit: 831 x 841 km, 71.0° (Epoch: 25 October)

Event Time Altitude Azimuth Distance (km) Brightness Sun altitude
Rises 18:20:45 0° 343° (NNW) 3,406 6.3 -14.2°
Reaches altitude 10° 18:23:42 10° 357° (N) 2,468 5.3 -14.8°
Maximum altitude 18:28:13 24° 51° (NE) 1,682 3.9 -15.6°
Enters shadow 18:29:57 21° 77° (ENE) 1,817 3.9 -15.9°
